User: anonymous   Login
Location: Cointrin
(46.2167°N, 6.1167°E)
Time: 21:43:23
(UTC+00:00)
Language:

COSMOS 2251 DEB - Orbit

View from above orbital plane
View from above orbital plane
View from above satellite
View from above satellite

Ground track
Ground track

The orbit data is extracted from the following two-line orbital elements,

1 40810U 93036BWP 24051.25014724  .00003520  00000-0  89211-3 0  9995
2 40810  74.0375 247.2193 0021175 197.5733 162.4698 14.51102841520617
Epoch (UTC): 20 February 2024 06:00:12
Eccentricity: 0.0021175
inclination: 74.0375°
perigee height: 707 km
apogee height: 737 km
right ascension of ascending node: 247.2193°
argument of perigee: 197.5733°
revolutions per day: 14.51102841
mean anomaly at epoch: 162.4698°
orbit number at epoch: 52061

The dashed part of the orbit path shows where the satellite is in the earth's shadow,  

DLR